Regional Weather Roundup
Issued by NWS New Orleans/Baton Rouge, LA

Home | Current Version | Previous Version | Text Only | Print | Product List | Glossary On
Versions: 1 2 3 4 5 6 7 8 9 10 11 12 13 14 15 16 17 18 19 20 21 22 23 24 25 26 27 28 29 30 31 32 33 34 35 36 37 38 39 40 41 42 43 44 45 46 47 48 49 50
404
ASUS44 KLIX 291707
RWRLIX
NEW ORLEANS REGIONAL WEATHER ROUNDUP
NATIONAL WEATHER SERVICE NEW ORLEANS LA
1200 PM CDT SUN MAR 29 2015

NOTE: "FAIR" INDICATES FEW OR NO CLOUDS BELOW 12,000 FEET WITH NO
      SIGNIFICANT WEATHER AND/OR OBSTRUCTIONS TO VISIBILITY.
      SKY/WX - SKY CONDITION AND SIGNIFICANT WEATHER.
      TMP - AIR TEMPERATURE.     DP    - DEWPOINT TEMPERATURE.
      RH  - RELATIVE HUMIDITY.   PRES  - PRESSURE.
      HI  - HEAT INDEX.          WCI   - WIND CHILL INDEX.

*  THESE STATIONS ARE NOT NWS OR FAA STATIONS AND ARE NOT UNDER
   NWS QUALITY CONTROL.

LAZ038-040-048-061>063-065>067-069-291800-
SOUTHEAST LOUISIANA

CITY           SKY/WX    TMP DP  RH WIND       PRES   REMARKS
N.O. AUDUBON   NOT AVBL
N.O. INTL ARPT MOSUNNY   74  58  57 SE14      30.29F
N.O. LAKEFRONT SUNNY     74  57  55 SE14      30.30F
SLIDELL        PTSUNNY   71  56  58 SE8       30.30F
BATON ROUGE    PTSUNNY   73  58  59 SE9       30.26F
BOOTHVILLE     MOSUNNY   71  59  65 SE17      30.32S
BELLE CHASSE   MOSUNNY   71  59  65 SE12      30.29F
BOGALUSA*        N/A     69  52  53 S14       30.32F
GALLIANO*      MOSUNNY   75  62  64 SE6       30.29F
NEW ROADS*       N/A     69  56  63 E8        30.27S
GONZALES*        N/A     74  60  63 SE5       30.26F
HAMMOND*       PTSUNNY   72  54  53 SE13G18   30.30F
HOUMA*         MOSUNNY  N/A N/A N/A SE10      30.28F
PORT FOURCHON* SUNNY     72  64  78 E14G21    30.32F

$$

MSZ070-080>082-291800-
SOUTHERN MISSISSIPPI

CITY           SKY/WX    TMP DP  RH WIND       PRES   REMARKS
MCCOMB         SUNNY     68  52  56 S12G18    30.28F
GULFPORT       MOSUNNY   66  55  67 SE16      30.33F
BILOXI         MOSUNNY   67  55  64 SE15      30.33F
PASCAGOULA     PTSUNNY   65  52  62 SE13G23   30.34F
STENNIS ARPT*  MOSUNNY   68  52  56 SE9G17    30.32F

$$

COASTAL OBSERVATIONS
LAKE AND NEARSHORE STATIONS

STATION/POSITION TIME  TEMP    WIND        PRES    WAVE
                       AIR SEA DIR/SP/G            HT/PER
                 (UTC) (F)     (DEG/KT/KT) (MB)    (FT/S)
PASCAGOULA       1600   63     100/ 10/ 16 1027.1
WAVELAND YACHT   1600   63 63  130/ 15/ 18 1026.9
GRAND ISLE       1600   69 66  130/  8/ 11 1026.0
SOUTHWEST PASS   1600   69 53  120/ 15/ 16 1026.7
NEW CANAL        1600   71     150/  5/  9 1026.5
SHELL BEACH      1600   67 66  130/ 18/ 21 1026.4

OFFSHORE STATIONS

STATION/POSITION TIME  TEMP    WIND        PRES    WAVE
                       AIR SEA DIR/SP/G            HT/PER
                 (UTC) (F)     (DEG/KT/KT) (MB)    (FT/S)
64 S DAUPHIN ISL 1650   66 72  130/ 14/ 16 1027.3    2/ 4

$$




USA.gov is the U.S. government's official web portal to all federal, state and local government web resources and services.